Location: Noyers
(47.2770°N, 1.4032°E)
Time: 03:13:37
(UTC+00:00)

NOSS 3-3 (C) - Pass Details

Date: 15 May 2026
Orbit: 697 x 1516 km, 63.4° (Epoch: 11 January)

Event Time Altitude Azimuth Distance (km) Brightness Sun altitude
Rises 20:28:04 0° 217° (SW) 3,143 6.6 -9.6°
Reaches altitude 10° 20:30:16 10° 217° (SW) 2,278 5.9 -9.9°
Maximum altitude 20:35:27 87° 131° (SE) 847 3.7 -10.5°
Drops below altitude 10° 20:41:42 10° 41° (NE) 2,725 6.4 -11.3°
Sets 20:44:32 0° 41° (NE) 3,808 7.2 -11.6°
